Regional Weather Roundup
Issued by NWS Upton, NY

Current Version | Previous Version | Graphics & Text | Print | Product List | Glossary Off
Versions: 1 2 3 4 5 6 7 8 9 10 11 12 13 14 15 16 17 18 19 20 21 22 23 24 25 26 27

000
ASUS41 KOKX 222105
RWROKX

REGIONAL WEATHER ROUNDUP
NATIONAL WEATHER SERVICE NEW YORK NY
500 PM EDT WED OCT 22 2014

NOTE: "FAIR" INDICATES FEW OR NO CLOUDS BELOW 12,000 FEET WITH NO
SIGNIFICANT WEATHER AND/OR OBSTRUCTIONS TO VISIBILITY.

NYZ071-072-176-178-NJZ106-104-222200-
NEW YORK CITY METRO AREA


CITY           SKY/WX    TMP DP  RH WIND       PRES   REMARKS
CENTRAL PARK   RAIN      54  48  80 N12G22    29.86S
LAGUARDIA APRT RAIN      54  49  83 N14       29.83S
KENNEDY INTL   LGT RAIN  54  49  83 N20       29.82S
NEWARK/LIBERTY CLOUDY    56  47  71 N23G35    29.83F
BRNX BOT. GARD   N/A     52  48  87 E5        29.85R
TETERBORO      CLOUDY    56  46  69 N14G23    29.83F HAZE
$$

NYZ177-179-078>081-222200-
LONG ISLAND NEW YORK

CITY           SKY/WX    TMP DP  RH WIND       PRES   REMARKS
FARMINGDALE    LGT RAIN  54  49  83 N20G30    29.79F
ISLIP          LGT RAIN  53  49  86 N24G33    29.76F
SHIRLEY        RAIN      53  50  89 N14G26    29.78F FOG
WESTHAMPTON    RAIN      54  50  86 N21G32    29.77F FOG
MONTAUK POINT    N/A     55  52  89 N21G37    29.76F
$$

NYZ052-065-067-222200-
HUDSON VALLEY

CITY           SKY/WX    TMP DP  RH WIND       PRES   REMARKS
WHITE PLAINS   RAIN      53  47  79 N20G26    29.82F FOG
NEWBURGH       LGT RAIN  50  50 100 N12G23    29.91F FOG
MONTGOMERY     LGT RAIN  52  48  86 NE15G22   29.90F
POUGHKEEPSIE   LGT RAIN  52  48  86 N9        29.90F FOG
ALBANY         LGT RAIN  51  45  79 N14G24    30.01F
$$

NJZ001-105-106-008-010-013-015-019>022-104-222200-
NEW JERSEY

CITY           SKY/WX    TMP DP  RH WIND       PRES   REMARKS
NEWARK/LIBERTY CLOUDY    56  47  71 N23G35    29.83F
TETERBORO      CLOUDY    56  46  69 N14G23    29.83F HAZE
CALDWELL       CLOUDY    53  46  77 N10G17    29.86F
MORRISTOWN     LGT RAIN  55  48  76 NE14G26   29.86F
SOMERVILLE     CLOUDY    55  47  74 N10G20    29.84F
SUSSEX         CLOUDY    55  48  77 N6        29.89F
ANDOVER          N/A     53  47  79 N8        29.89F
TRENTON        CLOUDY    54  48  80 N13       29.84R
MILLVILLE      LGT RAIN  54  51  90 N17G23    29.80S
ATLANTIC CITY  LGT RAIN  54  52  93 N20G25    29.76S
WRIGHTSTOWN    DRIZZLE   54  50  85 N18       29.79F
TOMS RIVER     CLOUDY    54  52  94 N8G18     29.79S
BELMAR         CLOUDY    54  46  76 N15       29.79F
$$

PAZ047>061-062-071-222200-
EASTERN PENNSYLVANIA

CITY           SKY/WX    TMP DP  RH WIND       PRES   REMARKS
PHILADELPHIA   LGT RAIN  56  50  80 N14G23    29.84S
ALLENTOWN      LGT RAIN  56  47  71 N12       29.89F
SCRANTON       CLOUDY    52  46  80 N14       29.97S
$$

CTZ002-004>006-009-010-012-RIZ004-006-007-MAZ004-011-015-222200-
SOUTHERN NEW ENGLAND
 IN CT

CITY           SKY/WX    TMP DP  RH WIND       PRES   REMARKS
BRADLEY INTL   DRIZZLE   53  47  79 N17G25    29.88F
HARTFORD       CLOUDY    52  48  86 N17G23    29.87F
DANBURY        LGT RAIN  51  46  83 N12       29.87F
WTRBRY/OXFORD  LGT RAIN  50  43  76 NE17G29   29.85F FOG
BRIDGEPORT     CLOUDY    53  49  86 NE20G28   29.82F
MERIDEN        LGT RAIN  51  48  89 N13G21    29.85F FOG
NEW HAVEN      LGT RAIN  55  49  80 N21G31    29.81F
CHESTER        LGT RAIN  52  48  87 NE8G24    29.82F
GROTON         LGT RAIN  52  49  89 N24G37    29.77F FOG
WILLIMANTIC    LGT RAIN  52  47  83 N17G24    29.85F

 IN RI

CITY           SKY/WX    TMP DP  RH WIND       PRES   REMARKS
PROVIDENCE     LGT RAIN  52  49  89 N25G40    29.84F FOG
BLOCK ISLAND   CLOUDY    54  50  87 NE28G44   29.73F
WESTERLY       RAIN      53  50  89 N18G35    29.78F FOG

 IN MA

CITY           SKY/WX    TMP DP  RH WIND       PRES   REMARKS
BOSTON         DRIZZLE   51  49  92 NE29G40   29.89F FOG
WORCESTER      LGT RAIN  47  45  93 NE17G31   29.90F FOG
WESTFIELD      LGT RAIN  51  48  89 N16G23    29.91F FOG
PROVINCETOWN   CLOUDY    57  55  94 NE15G25   29.82S VSB 1
NANTUCKET      LGT RAIN  56  55  97 NE18      29.74F
$$

ANZ330-335-338-340-345-350-353-355-222200-
COASTAL MARINE OBSERVATIONS


STATION/POSITION TIME  SKY/WX   TEMP    WIND        PRES    VSBY  WAVE
                                AIR SEA DIR/SP/G                  HT/PER
                 (UTC)          (F)     (DEG/KT/KT) (MB)    (MI)  (FT/S)
NY HARB ENTRANCE NOT AVBL
4S FIRE IS       2100               63                N/A           7/ 8
20S FIRE ISLAND  2100            57 63   20/ 31/ 39 1004.8         10/ 7
23SW MTP         2100                                 N/A          10/ 7
HUDSON CANYON    2100            62 66   40/ 31/ 39 1001.1
EXECUTION ROCKS  2100            57 63   10/ 19/ 27   N/A
WESTERN LI SOUND 2100            56      20/ 19/ 27   N/A           4/ 5
CENTRAL LI SOUND 2000            55 64   20/ 23/ 29   N/A           4/ 5
EASTERN LI SOUND 2000            55 63   40/ 21/ 27   N/A
ROBBINS REEF     2100            56      10/ 27/ 31 1008.4
$$


>>>>>>>>>>>>>>>>>>>>>>>>>>>> KEY <<<<<<<<<<<<<<<<<<<<<<<<<<<
>                                                          <
>     SKY/WX - SKY CONDITION/PRESENT WEATHER               <
>     TMP    - TEMPERATURE IN FAHRENHEIT                   <
>     DP     - DEWPOINT IN FAHRENHEIT                      <
>     RH     - RELATIVE HUMIDITY IN PERCENT                <
>     WIND   - DIRECTION AND SPEED IN MPH                  <
>     PRES   - MEAN SEA LEVEL PRESSURE IN INCHES OF HG     <
>     WCI    - WIND CHILL INDEX                            <
>     VSB    - VISIBILITY IN MILES                         <
>     HX     - HEAT INDEX                                  <
>     TC     - TEMPERATURE IN CELSIUS                      <
>     VRB    - VARIABLE WIND DIRECTION                     <
>                                                          <
>>>>>>>>>>>>>>>>>>>>>>>>>>>> KEY <<<<<<<<<<<<<<<<<<<<<<<<<<<





USA.gov is the U.S. government's official web portal to all federal, state and local government web resources and services.